Vorticity
7 6 5 4 3 3 3 4 4 4 5 5 5 5 6 6 6 6 6 6 6 6 7 7 7 7 8 7 7 7 6 7 6 4 5 6 5 5 5 8 10 9 10 10 7 8 9 8 6 5 5 4 2 7 7 6 9 3 1 6 4 5 10 11 10 9 8 8 8 7 8 9 8 7 7 5 6 7 12 26 21 10 10 5 4 6 6 8
7 7 7 7 6 5 4 4 4 4 4 4 4 4 4 4 6 6 6 6 6 6 6 6 7 6 8 7 7 7 6 8 6 4 5 5 5 6 6 7 10 9 9 10 7 8 9 7 6 4 6 4 2 7 5 4 7 3 8 9 4 6 7 10 12 10 8 8 8 8 7 8 10 9 9 7 5 6 4 11 17 10 10 9 6 7 6 7
8 7 6 7 7 8 6 6 5 4 4 4 4 4 5 5 6 7 6 6 5 6 6 6 6 6 8 7 7 7 6 9 6 5 6 4 5 7 7 8 9 9 10 10 7 7 8 7 5 4 6 4 3 6 1 2 6 4 8 7 6 11 8 8 12 13 10 8 8 9 8 7 8 9 12 12 6 8 5 3 9 8 7 9 10 10 7 6
8 9 7 6 6 7 7 7 6 5 4 3 4 5 6 7 6 6 6 6 5 6 6 6 6 6 7 7 7 6 8 10 5 4 6 4 5 7 8 7 8 9 10 9 7 7 9 9 8 7 8 6 6 8 6 7 10 8 8 6 7 11 10 9 10 14 13 9 9 8 10 8 7 8 10 15 11 11 11 5 7 7 6 7 9 11 11 10
4 7 9 8 6 5 5 6 6 5 4 4 5 5 7 7 6 5 5 6 6 6 5 6 6 5 7 7 7 6 9 10 4 3 7 5 6 9 8 7 8 9 10 9 6 7 9 9 10 10 8 7 7 8 9 8 9 9 7 6 5 6 9 9 8 13 14 12 11 10 10 8 7 7 7 11 12 13 14 11 8 7 7 7 8 7 8 12
2 2 5 8 8 6 5 5 5 5 5 5 5 5 6 6 6 5 5 6 6 6 5 6 6 6 6 7 7 6 8 9 5 5 7 7 7 9 8 7 8 8 10 9 6 5 7 7 8 9 7 7 5 3 7 7 6 8 6 7 5 4 6 5 5 9 13 14 12 11 11 9 9 8 7 9 9 13 16 15 12 10 8 7 7 6 7 11
3 2 2 3 6 7 7 5 5 5 5 5 4 4 4 6 7 6 5 5 6 6 5 5 6 6 6 7 7 5 8 8 5 6 7 8 9 8 8 7 7 8 10 10 6 5 6 8 8 8 4 4 5 2 8 10 7 9 6 7 6 5 6 3 3 6 10 15 14 13 11 10 11 9 8 8 8 9 12 15 14 13 12 9 8 6 8 11
4 4 3 2 2 4 6 7 6 5 4 4 4 3 3 5 7 7 7 6 5 5 5 5 5 6 6 7 7 5 7 8 5 6 7 8 9 7 6 7 7 8 10 9 8 5 7 10 9 9 4 4 9 7 9 9 4 6 4 5 5 4 5 1 2 4 6 11 14 15 14 12 13 12 10 7 7 7 7 11 11 13 13 12 12 8 7 8
6 5 5 4 3 2 3 5 7 7 5 4 4 3 4 4 6 8 8 7 6 5 5 5 4 5 6 7 7 7 7 8 6 6 7 7 8 7 7 8 8 7 7 9 9 5 6 9 7 9 7 6 10 7 5 5 1 3 3 5 5 3 5 2 0 2 3 6 9 12 13 13 12 13 14 9 8 7 6 7 9 11 11 12 13 14 12 6
10 8 6 5 4 3 3 2 4 7 7 6 5 4 4 4 5 7 8 7 6 6 5 5 4 3 5 6 7 7 7 7 6 5 6 7 7 6 6 7 8 5 5 11 11 6 6 8 6 8 10 6 5 5 4 2 2 4 3 5 5 4 5 3 2 2 1 4 5 6 9 9 10 12 14 13 11 8 7 8 8 9 9 10 10 11 19 16
10 11 10 8 6 5 4 3 2 4 6 6 7 6 5 4 5 6 7 7 6 7 5 5 4 3 4 4 7 8 7 7 6 5 6 7 7 6 6 8 9 4 5 11 10 6 6 8 7 7 10 6 2 6 4 1 3 5 3 3 3 4 5 4 5 4 2 4 4 5 7 7 8 11 12 12 13 12 9 9 9 11 10 12 10 3 13 24
6 8 10 11 9 7 6 6 4 3 4 5 6 7 7 7 5 5 6 6 5 6 6 5 4 4 2 3 8 8 6 6 6 6 7 6 7 6 6 8 9 5 5 11 12 9 7 7 7 7 9 6 2 5 2 0 2 1 1 1 1 3 4 4 4 4 5 6 4 5 9 7 7 12 12 11 12 13 11 9 9 11 11 11 13 5 8 20
3 4 6 9 10 10 8 7 5 5 5 4 4 6 7 8 7 6 5 5 4 3 5 5 5 4 2 5 7 3 5 7 5 7 7 6 8 7 6 7 9 7 6 9 10 10 7 7 9 8 10 9 2 1 1 2 1 -0 2 2 3 4 4 5 4 4 6 8 7 8 10 7 6 11 14 11 9 11 10 9 8 9 11 11 11 8 11 17
6 5 4 5 7 9 10 9 7 6 7 6 4 4 6 7 9 8 6 6 4 3 3 3 5 3 3 6 4 1 5 6 5 7 8 7 8 7 6 7 8 6 5 6 6 8 7 7 11 9 9 9 2 1 3 2 -0 1 4 1 1 4 5 6 5 5 7 10 8 8 12 8 6 12 16 12 8 9 9 8 8 7 8 10 10 9 10 15
11 9 7 5 5 6 8 9 9 7 7 8 6 5 5 5 7 8 8 8 6 5 3 2 3 2 3 5 3 2 3 4 6 6 8 10 8 7 7 7 8 6 6 7 6 9 8 6 11 8 8 8 1 1 3 1 0 0 -0 -2 -1 2 3 5 7 5 5 9 7 5 9 9 8 13 16 13 8 8 9 7 8 7 7 8 9 10 11 14
14 14 12 10 7 6 5 6 8 8 7 8 9 7 6 5 5 6 7 8 8 6 5 4 3 1 3 4 1 0 1 5 6 4 9 11 8 8 8 8 10 9 10 9 6 10 8 6 10 9 9 7 0 3 3 -0 4 4 0 -0 2 4 2 3 5 4 2 5 6 4 5 6 8 13 17 14 8 7 9 8 7 6 7 8 8 10 13 15
14 15 16 15 13 11 7 4 5 7 7 7 9 8 7 6 5 5 5 7 8 8 7 6 4 2 3 3 1 0 2 5 4 4 9 10 9 9 8 9 9 9 11 8 6 11 9 6 10 11 9 2 1 8 0 -3 10 10 5 4 3 5 5 4 3 2 2 2 3 3 2 4 6 10 16 15 9 8 9 8 7 6 7 9 9 10 11 14
13 14 15 16 17 17 15 10 6 5 6 6 7 8 8 7 7 6 6 5 6 8 9 7 5 3 4 4 3 3 4 4 4 5 7 9 10 9 8 9 8 8 11 10 9 9 9 7 9 10 8 2 6 8 -6 -3 13 9 4 4 2 4 6 5 2 1 2 1 2 3 2 4 5 6 13 16 12 9 8 7 7 7 7 8 10 9 9 12
11 12 13 14 15 18 20 19 14 9 6 6 6 7 7 7 7 7 7 6 6 7 9 7 6 5 4 4 4 3 3 4 5 5 5 7 8 9 8 7 8 9 10 12 11 7 8 8 8 12 12 6 6 4 -5 0 9 2 -1 1 2 7 8 4 3 3 3 1 1 3 3 5 6 6 9 14 15 10 7 8 6 5 6 7 9 8 7 11
11 11 11 11 12 14 19 21 20 18 14 10 8 8 8 8 8 8 8 7 6 6 7 7 7 6 5 6 6 4 3 3 4 3 4 7 8 8 7 6 7 8 8 12 13 8 7 8 11 16 16 5 -1 4 4 3 4 -2 -2 2 5 7 4 2 5 4 3 3 2 3 6 6 7 8 8 10 17 14 6 6 7 5 5 6 7 7 6 9
13 12 11 10 10 10 13 16 18 20 21 18 15 12 11 10 9 9 9 9 8 7 7 7 8 7 6 7 6 5 4 3 4 6 5 6 9 8 8 7 6 7 8 11 14 8 7 14 14 12 10 -1 -5 7 10 4 4 -0 -1 7 9 4 1 4 7 5 4 4 2 2 6 6 5 8 10 9 15 18 10 6 8 6 5 6 6 8 8 9
13 13 13 11 12 11 10 11 11 13 17 19 19 18 16 15 13 11 10 11 10 9 8 8 8 7 6 7 6 5 6 5 5 7 5 6 9 8 9 8 6 8 8 9 12 8 11 19 11 3 4 -2 -3 7 9 7 7 1 1 9 5 -1 5 7 6 7 7 7 4 1 3 3 1 4 9 10 12 19 17 8 7 7 5 5 6 7 9 10
10 11 12 12 13 14 12 11 10 9 10 12 14 16 18 19 19 17 14 13 12 10 11 10 8 7 7 7 6 6 7 6 6 6 6 7 8 7 9 8 6 7 7 9 10 9 13 13 4 3 6 4 1 2 7 9 4 -1 2 7 -0 -3 6 5 3 6 7 9 7 0 -1 -2 -2 1 6 11 11 17 21 11 6 8 6 5 5 7 7 8
9 9 10 10 11 13 14 13 12 11 9 9 10 11 13 15 18 19 18 17 15 12 13 13 10 8 8 6 6 6 6 6 6 6 6 7 7 9 9 7 6 7 7 8 8 9 10 6 4 7 7 9 6 -0 6 7 1 3 5 3 -1 -1 6 4 3 5 7 14 10 1 3 -1 -4 0 4 10 12 14 20 16 8 7 7 5 4 7 7 6
9 9 9 9 8 10 12 12 12 12 11 10 10 10 10 10 12 14 15 17 18 17 16 14 12 9 10 9 7 7 7 6 5 6 7 6 7 9 9 7 6 6 7 8 9 9 8 6 5 5 5 9 8 4 5 4 4 8 4 -1 -1 3 11 10 4 4 10 18 9 -1 8 7 -3 -1 3 8 11 11 13 17 14 8 7 7 4 6 6 5
8 9 9 9 8 8 10 10 11 11 11 11 10 11 11 10 10 10 11 12 15 18 18 17 14 11 12 13 9 7 7 6 6 7 7 6 7 6 7 8 5 4 6 7 8 6 8 10 1 1 7 7 9 9 6 7 9 5 -1 -1 2 6 14 12 4 3 6 10 6 -0 9 13 0 -3 4 7 9 9 9 13 17 12 8 8 5 5 6 4
8 8 9 9 8 8 9 9 9 10 10 10 10 11 11 10 11 10 11 11 11 12 15 17 18 16 16 15 12 8 6 7 8 8 8 8 8 7 7 8 4 5 6 6 7 5 11 13 1 1 7 6 11 10 5 9 8 1 0 0 2 6 11 11 5 1 -2 -3 4 4 8 14 5 -3 2 6 6 9 10 11 16 15 11 8 6 7 6 4
8 8 8 8 9 9 9 9 9 9 10 9 9 10 10 10 10 10 12 12 11 13 14 15 17 18 17 16 14 10 8 10 9 8 9 7 8 8 7 5 4 5 5 4 7 9 12 12 4 1 3 8 13 6 4 9 3 2 5 -2 -2 4 7 7 4 4 -1 -6 2 6 4 11 11 2 1 4 5 9 12 11 14 17 14 9 7 8 6 5
9 7 7 7 8 9 10 9 9 10 10 9 9 9 10 10 10 10 11 9 10 13 14 13 15 17 16 15 15 13 11 10 8 9 10 9 9 10 6 6 6 5 5 5 4 6 10 9 4 1 5 12 9 1 5 8 2 4 6 -2 -1 5 6 4 3 6 2 -5 -0 3 3 10 14 5 -1 1 7 12 13 11 13 18 17 10 8 9 7 5
9 8 7 7 7 8 9 10 10 11 10 10 10 10 10 10 10 10 10 9 10 11 11 12 15 17 17 16 15 14 12 10 10 11 10 8 9 9 8 9 8 4 5 5 1 4 10 10 4 3 7 6 4 8 8 4 5 8 4 1 2 3 4 3 1 2 4 4 4 1 4 12 14 5 -3 1 11 15 14 11 13 19 19 13 9 9 8 5
9 8 7 7 7 7 8 10 11 11 10 9 10 10 9 9 9 9 8 9 11 10 10 12 14 16 18 19 16 14 13 12 12 11 10 10 9 6 7 7 6 4 3 3 2 6 11 8 2 4 6 2 5 11 3 -0 10 9 2 3 5 2 3 5 3 2 6 7 2 3 9 11 9 4 0 6 13 14 13 11 14 22 22 16 10 9 9 6
9 9 7 7 8 8 8 9 10 11 10 10 10 10 9 8 8 8 8 9 9 9 10 12 14 15 16 18 17 14 13 12 12 11 12 14 11 9 10 9 7 7 6 5 5 6 7 4 2 5 5 5 11 8 -1 4 11 8 2 3 4 2 2 8 9 6 7 2 1 7 7 6 6 1 1 8 10 10 12 12 15 22 25 18 10 10 12 7
8 9 8 7 8 8 8 8 9 11 11 9 9 10 8 8 8 7 8 8 8 9 11 13 14 14 15 18 18 17 14 12 12 12 11 12 12 13 13 10 9 10 9 6 4 6 8 4 3 6 4 7 13 7 2 6 5 6 6 3 6 6 3 9 10 7 8 10 15 10 -1 4 7 1 3 9 13 13 12 15 17 17 22 21 10 10 15 10
8 8 9 8 8 9 9 8 9 10 11 9 9 9 8 8 7 7 8 7 8 10 12 13 14 14 14 15 16 17 16 15 14 13 11 10 10 11 11 9 11 11 8 6 4 6 10 5 1 5 6 9 12 8 8 9 2 1 3 1 6 7 3 4 7 5 4 12 17 3 -3 6 2 3 11 9 13 16 10 17 22 13 14 20 15 11 15 12
8 8 9 9 9 9 9 9 9 10 11 10 9 8 9 8 7 6 7 8 9 12 13 12 13 12 12 12 13 14 15 16 16 14 12 11 11 11 11 12 14 11 7 9 8 6 8 5 2 5 7 10 14 9 8 11 6 1 0 0 4 8 3 -1 -0 1 1 9 10 -2 -0 4 -1 9 16 8 14 16 9 16 25 18 11 15 20 17 14 13
8 9 9 9 9 9 10 10 9 10 11 11 10 9 8 7 6 7 8 9 10 13 15 14 12 11 11 11 12 13 14 14 15 15 15 15 14 12 11 13 15 13 10 11 10 8 8 3 1 7 8 9 14 13 6 5 4 5 4 -0 -1 2 3 -0 1 6 10 11 7 2 4 2 2 8 5 9 19 10 5 16 20 20 16 12 20 22 18 17
8 9 10 10 10 9 9 9 9 10 11 11 10 9 8 7 7 8 8 9 10 13 15 14 11 10 10 10 10 10 12 13 14 14 15 16 15 14 13 13 13 13 13 13 10 10 12 5 0 5 7 8 12 14 8 -3 -4 4 7 7 7 3 1 2 4 6 11 9 5 9 9 2 5 5 -2 14 21 0 -1 14 14 15 16 13 16 18 17 17
8 9 10 10 10 9 9 10 10 10 11 12 11 8 8 8 8 8 8 9 10 12 14 13 11 10 10 9 8 7 10 12 13 13 14 15 16 18 18 14 14 12 12 13 10 11 13 10 7 6 6 10 11 11 7 -3 -4 -1 -5 -1 7 5 4 10 10 9 10 7 7 11 7 2 6 5 5 17 15 -0 -1 7 11 13 13 14 15 14 15 15
9 9 9 10 10 8 9 9 10 11 11 12 11 8 8 9 9 9 9 10 10 11 14 13 11 11 10 8 6 7 9 11 14 14 14 14 16 22 21 16 16 14 12 12 11 13 12 6 11 13 7 8 10 10 8 -1 -2 0 -5 -5 -1 -1 2 4 4 9 9 3 7 9 5 8 10 8 17 18 3 -1 4 2 7 12 12 14 13 11 15 14
10 9 9 10 9 8 9 9 10 11 11 11 10 9 9 9 10 10 10 10 10 11 13 13 11 10 8 6 6 8 7 9 14 15 13 14 13 18 21 18 18 17 15 12 9 12 12 2 5 12 10 9 7 9 12 5 -3 -1 -1 -2 -6 -7 -2 -3 -5 5 7 3 7 10 5 8 9 8 18 16 -2 -4 3 3 7 11 14 15 10 9 12 13
10 9 9 9 9 8 8 9 10 10 10 11 10 8 8 8 9 11 11 10 9 10 13 14 12 8 6 6 5 7 6 8 14 13 14 17 12 11 15 16 17 17 16 14 10 10 12 5 3 6 7 9 8 7 9 7 5 5 1 -0 1 -2 -0 6 7 6 6 3 5 10 8 5 5 4 6 7 2 -2 -2 5 11 11 14 16 12 9 8 10
11 10 10 9 9 9 8 9 10 10 10 10 9 8 8 8 11 11 11 11 9 9 12 14 13 8 5 5 4 6 8 7 9 14 18 19 14 11 13 13 14 14 14 15 15 14 13 9 6 7 7 8 10 12 8 2 7 11 3 1 11 12 7 11 11 6 8 9 7 10 11 5 0 1 2 3 5 1 -3 5 11 10 15 17 13 11 8 8
12 11 10 10 9 8 9 10 10 10 11 10 10 9 8 9 12 12 11 11 8 8 11 13 13 9 4 3 3 5 8 6 8 19 23 17 12 11 12 12 12 13 14 14 13 13 13 10 7 8 9 5 3 10 13 6 5 9 2 -5 -2 1 1 4 4 5 10 11 9 6 5 3 -3 -5 1 5 5 4 4 8 10 9 16 19 14 12 12 11
13 12 11 10 10 8 8 9 10 11 12 11 9 8 9 11 13 12 11 10 9 9 11 11 11 10 6 4 3 4 7 7 10 23 23 10 6 9 9 11 11 14 18 16 15 15 13 11 10 7 9 8 0 4 13 9 4 6 6 4 2 -0 0 1 -0 2 4 3 8 8 3 4 -0 -5 3 10 7 6 9 13 12 8 13 21 17 11 11 12
12 13 12 11 10 9 9 9 10 11 13 14 11 7 9 14 15 14 10 8 10 9 9 10 10 10 8 5 3 3 5 5 10 22 20 7 5 8 7 10 11 12 14 12 12 16 15 15 15 9 9 11 6 5 11 11 8 5 2 4 9 6 1 0 -2 -0 4 2 4 7 3 -0 -1 -1 9 14 5 1 9 16 15 8 9 16 17 12 9 9
12 11 12 12 9 8 9 9 9 7 8 14 14 8 9 13 14 15 10 7 10 10 7 9 10 10 8 5 3 3 4 4 7 19 21 6 2 8 6 5 8 8 10 12 11 12 15 17 16 12 10 9 9 8 9 11 11 10 7 6 8 7 3 4 5 4 7 8 6 8 6 2 3 3 5 8 0 -5 8 20 16 9 7 7 10 12 9 8
11 11 12 12 10 8 9 11 11 7 3 9 13 9 12 16 14 14 10 8 11 10 7 8 8 9 8 6 4 3 4 5 3 15 26 9 -2 8 7 3 8 8 5 11 13 10 13 18 18 16 12 7 6 7 6 8 8 11 13 10 9 8 3 3 6 2 4 14 14 9 4 2 4 1 -3 4 3 -6 3 21 20 10 5 3 5 8 7 7
11 12 11 11 11 9 7 11 13 10 6 7 8 6 11 16 15 13 10 8 12 11 8 7 7 8 7 6 6 4 6 8 1 8 25 14 -1 6 9 6 10 10 4 5 8 7 10 15 19 21 20 14 8 5 6 9 9 10 12 10 11 12 7 7 9 6 8 15 12 6 6 3 -0 -3 -2 8 8 -5 -5 14 23 15 7 4 4 7 9 7
12 11 12 11 11 8 6 10 12 11 10 9 6 6 10 12 13 12 9 7 11 13 10 7 8 9 6 4 7 5 4 5 -0 3 18 17 4 2 7 9 10 11 8 3 3 8 8 7 13 17 19 21 16 8 7 9 9 10 9 6 5 4 5 9 12 10 12 8 1 5 10 3 -5 -3 7 13 8 -2 -5 5 18 19 13 9 6 9 12 10
16 11 11 11 11 9 7 10 12 11 12 10 6 6 10 13 13 11 9 6 8 13 14 9 7 10 8 3 3 3 1 1 0 4 13 16 10 5 5 9 10 10 9 2 1 8 8 4 9 12 12 20 22 16 12 9 8 9 9 8 6 2 -1 2 6 12 13 6 4 10 9 3 1 5 10 9 2 -1 -2 -0 8 15 15 13 12 14 17 13
18 13 12 11 11 10 8 10 12 9 8 12 13 8 7 13 15 11 10 8 6 10 13 10 8 10 10 7 4 3 4 5 6 9 13 12 13 11 6 6 8 8 11 8 -0 2 9 8 5 7 13 18 22 25 22 16 13 11 9 10 9 5 -2 -5 1 9 9 6 10 12 8 5 5 5 5 1 -1 1 -0 -2 3 9 12 12 10 12 15 13
19 15 13 11 10 10 8 9 12 10 5 8 13 10 6 11 14 10 9 10 9 9 10 9 10 10 8 8 8 7 9 11 11 12 12 11 12 12 9 9 7 2 8 14 4 -3 7 12 6 8 18 21 26 31 26 20 18 14 9 6 6 7 4 -0 4 9 11 16 15 5 3 5 3 2 1 -4 -3 1 -1 -3 1 6 9 10 8 8 8 7
Height
5920 5920 5920 5920 5920 5920 5920 5919 5919 5919 5919 5919 5919 5918 5918 5918 5918 5917 5917 5917 5916 5916 5916 5916 5916 5916 5916 5915 5915 5915 5915 5914 5914 5914 5914 5914 5914 5915 5915 5915 5914 5914 5914 5914 5914 5914 5914 5914 5914 5914 5914 5914 5914 5913 5913 5912 5912 5911 5909 5908 5908 5908 5907 5906 5905 5904 5904 5903 5902 5901 5900 5899 5899 5900 5900 5900 5901 5901 5901 5901 5902 5903 5904 5905 5906 5907 5908 5909
5919 5919 5918 5918 5919 5919 5919 5918 5918 5918 5918 5918 5918 5918 5918 5917 5917 5917 5917 5916 5916 5916 5916 5916 5915 5915 5915 5915 5914 5915 5914 5914 5914 5914 5914 5914 5914 5915 5915 5915 5915 5914 5914 5914 5914 5914 5914 5914 5915 5914 5914 5914 5914 5914 5914 5913 5912 5912 5910 5910 5909 5908 5907 5907 5906 5905 5904 5903 5903 5902 5901 5900 5900 5900 5900 5900 5901 5901 5902 5902 5903 5904 5905 5905 5906 5906 5907 5908
5918 5917 5917 5917 5917 5917 5917 5917 5917 5917 5917 5917 5917 5917 5917 5917 5916 5916 5916 5916 5915 5915 5915 5915 5915 5915 5915 5914 5914 5914 5914 5914 5914 5914 5914 5914 5914 5915 5915 5915 5915 5914 5915 5914 5914 5914 5915 5915 5915 5915 5915 5915 5915 5915 5915 5914 5913 5913 5911 5911 5910 5909 5908 5907 5906 5905 5905 5904 5903 5903 5902 5902 5901 5901 5901 5901 5901 5901 5902 5903 5904 5904 5904 5905 5905 5906 5906 5907
5916 5916 5916 5915 5915 5915 5916 5916 5916 5915 5916 5916 5916 5916 5916 5915 5915 5915 5915 5915 5915 5915 5914 5914 5914 5914 5914 5914 5914 5913 5913 5913 5914 5914 5913 5914 5914 5915 5915 5915 5915 5915 5915 5915 5915 5915 5915 5915 5915 5915 5915 5915 5915 5915 5915 5915 5914 5913 5912 5911 5911 5910 5909 5907 5907 5906 5905 5905 5904 5904 5903 5902 5902 5901 5901 5901 5901 5901 5902 5903 5903 5903 5903 5903 5904 5904 5905 5906
5914 5914 5914 5914 5914 5914 5914 5914 5914 5914 5914 5914 5914 5915 5914 5914 5914 5914 5914 5914 5914 5914 5914 5914 5914 5913 5913 5913 5913 5913 5913 5913 5913 5913 5913 5913 5914 5915 5915 5915 5915 5915 5915 5915 5915 5915 5915 5915 5915 5915 5915 5916 5916 5916 5916 5916 5915 5914 5913 5912 5911 5910 5909 5908 5907 5907 5906 5905 5905 5904 5904 5903 5902 5902 5902 5901 5901 5901 5902 5903 5902 5902 5902 5902 5903 5903 5903 5904
5912 5912 5912 5912 5912 5912 5912 5912 5912 5912 5913 5913 5913 5913 5913 5913 5913 5913 5913 5913 5913 5913 5913 5913 5913 5913 5913 5913 5913 5912 5912 5912 5912 5913 5913 5913 5914 5914 5915 5915 5915 5915 5915 5915 5915 5915 5915 5916 5915 5915 5916 5916 5917 5917 5917 5917 5916 5915 5914 5913 5912 5911 5910 5908 5908 5907 5907 5906 5905 5905 5904 5904 5903 5902 5902 5902 5901 5901 5902 5902 5902 5901 5901 5901 5901 5902 5902 5902
5910 5910 5910 5910 5910 5910 5910 5911 5911 5911 5911 5911 5911 5911 5912 5912 5912 5912 5912 5912 5912 5912 5912 5912 5912 5912 5912 5912 5912 5912 5911 5911 5912 5912 5913 5913 5913 5914 5915 5915 5915 5915 5915 5915 5915 5915 5916 5916 5916 5916 5916 5917 5917 5918 5918 5917 5916 5916 5915 5914 5913 5912 5911 5909 5908 5908 5907 5906 5906 5906 5905 5905 5904 5903 5902 5902 5902 5902 5902 5902 5901 5901 5900 5900 5900 5901 5901 5901
5908 5908 5908 5908 5908 5908 5908 5909 5909 5909 5909 5909 5910 5910 5910 5910 5910 5910 5910 5910 5910 5911 5911 5911 5911 5911 5911 5911 5911 5911 5911 5911 5911 5911 5912 5912 5913 5913 5914 5915 5915 5915 5915 5915 5915 5915 5916 5916 5916 5916 5917 5917 5918 5918 5918 5918 5917 5916 5916 5915 5914 5913 5911 5910 5909 5909 5907 5907 5906 5906 5905 5905 5905 5904 5903 5902 5902 5902 5902 5901 5901 5900 5900 5900 5900 5901 5900 5901
5905 5905 5905 5905 5905 5905 5906 5906 5907 5907 5907 5907 5908 5908 5908 5908 5908 5908 5909 5909 5909 5909 5909 5909 5909 5909 5910 5910 5910 5910 5910 5910 5910 5910 5911 5912 5912 5913 5913 5914 5914 5914 5915 5915 5915 5915 5915 5916 5916 5916 5917 5917 5918 5918 5918 5918 5917 5917 5916 5916 5915 5914 5912 5911 5910 5909 5908 5907 5906 5906 5905 5905 5905 5904 5903 5903 5903 5903 5902 5901 5901 5900 5900 5899 5900 5900 5900 5900
5901 5902 5902 5902 5902 5903 5903 5903 5904 5904 5905 5905 5905 5906 5906 5906 5907 5907 5907 5907 5907 5907 5908 5908 5908 5908 5908 5908 5909 5909 5909 5909 5909 5909 5910 5911 5911 5912 5913 5913 5914 5914 5914 5915 5915 5915 5915 5915 5916 5916 5916 5917 5918 5918 5918 5918 5918 5917 5917 5916 5915 5914 5913 5912 5911 5910 5909 5908 5907 5906 5905 5905 5905 5904 5903 5903 5903 5903 5902 5901 5901 5900 5899 5899 5899 5900 5900 5899
5898 5898 5899 5899 5899 5899 5900 5900 5901 5902 5902 5902 5903 5903 5904 5904 5905 5905 5905 5905 5906 5906 5906 5906 5907 5907 5907 5907 5907 5908 5908 5908 5908 5908 5909 5910 5910 5911 5912 5912 5913 5913 5914 5914 5914 5914 5915 5915 5915 5916 5916 5917 5918 5918 5918 5918 5918 5918 5917 5916 5916 5915 5914 5913 5912 5911 5910 5909 5908 5906 5906 5905 5904 5904 5903 5903 5903 5903 5902 5901 5901 5900 5899 5899 5898 5898 5899 5899
5894 5895 5895 5896 5896 5896 5896 5897 5897 5898 5899 5899 5900 5901 5901 5902 5902 5902 5903 5903 5904 5904 5904 5905 5905 5905 5906 5906 5906 5906 5907 5907 5907 5907 5908 5909 5909 5910 5911 5911 5912 5913 5913 5914 5914 5914 5914 5914 5915 5915 5916 5917 5918 5918 5918 5918 5918 5918 5917 5917 5916 5915 5914 5913 5913 5912 5910 5909 5908 5907 5906 5905 5904 5903 5903 5903 5902 5902 5902 5901 5900 5899 5899 5899 5898 5897 5896 5897
5890 5891 5891 5892 5892 5893 5893 5893 5894 5895 5896 5896 5897 5898 5898 5899 5899 5900 5901 5901 5902 5902 5902 5903 5903 5904 5904 5904 5905 5905 5905 5906 5906 5906 5907 5908 5908 5909 5910 5911 5912 5912 5913 5913 5913 5914 5914 5914 5915 5915 5916 5917 5917 5917 5918 5918 5918 5918 5917 5917 5916 5915 5914 5914 5913 5912 5911 5910 5909 5908 5907 5905 5904 5904 5903 5903 5902 5902 5901 5900 5899 5899 5899 5898 5898 5897 5895 5895
5886 5887 5887 5888 5889 5889 5890 5890 5890 5891 5892 5893 5893 5894 5895 5896 5896 5897 5898 5899 5899 5900 5900 5901 5901 5902 5903 5903 5903 5903 5904 5905 5905 5905 5906 5907 5907 5908 5909 5910 5911 5911 5912 5912 5913 5914 5914 5914 5914 5915 5916 5916 5917 5917 5918 5918 5918 5918 5917 5917 5916 5915 5914 5914 5914 5913 5911 5910 5909 5908 5907 5906 5905 5904 5903 5903 5902 5901 5901 5900 5899 5899 5898 5898 5898 5897 5896 5895
5882 5882 5883 5883 5884 5885 5886 5886 5886 5887 5888 5889 5890 5891 5892 5892 5893 5894 5895 5896 5896 5897 5898 5899 5899 5900 5901 5901 5901 5902 5902 5903 5903 5904 5905 5905 5906 5907 5908 5908 5909 5910 5911 5912 5912 5913 5914 5914 5914 5915 5915 5916 5917 5918 5918 5918 5918 5918 5917 5916 5916 5915 5914 5914 5914 5913 5912 5911 5910 5909 5908 5906 5905 5905 5904 5903 5902 5901 5901 5900 5899 5898 5898 5898 5898 5897 5896 5896
5877 5878 5878 5879 5880 5881 5882 5883 5883 5883 5884 5885 5886 5887 5888 5889 5890 5891 5892 5892 5893 5894 5895 5896 5897 5898 5899 5899 5899 5900 5901 5902 5902 5902 5903 5904 5905 5906 5906 5907 5908 5909 5910 5911 5912 5913 5913 5914 5914 5915 5915 5916 5917 5917 5917 5918 5918 5918 5917 5916 5916 5914 5914 5915 5914 5913 5912 5911 5910 5909 5908 5907 5906 5905 5904 5903 5903 5902 5901 5900 5900 5899 5898 5898 5898 5897 5896 5896
5873 5873 5874 5874 5875 5876 5877 5878 5879 5879 5880 5881 5882 5883 5884 5885 5886 5887 5888 5889 5890 5891 5892 5893 5894 5895 5896 5897 5897 5898 5899 5900 5900 5901 5901 5903 5904 5904 5905 5906 5907 5908 5910 5910 5911 5912 5913 5913 5914 5914 5915 5916 5916 5917 5917 5918 5918 5917 5916 5916 5916 5915 5915 5915 5915 5914 5913 5912 5911 5909 5908 5908 5906 5905 5904 5904 5903 5902 5902 5901 5900 5899 5899 5898 5898 5897 5897 5896
5870 5869 5869 5870 5870 5871 5873 5874 5875 5875 5876 5877 5878 5879 5880 5881 5883 5884 5885 5886 5887 5888 5889 5890 5891 5892 5894 5894 5895 5896 5897 5898 5898 5899 5900 5901 5902 5903 5904 5905 5906 5907 5908 5910 5911 5912 5912 5913 5913 5914 5915 5915 5916 5916 5917 5917 5917 5916 5916 5915 5915 5915 5915 5915 5915 5914 5913 5912 5911 5910 5908 5908 5906 5905 5905 5904 5904 5903 5902 5901 5901 5900 5900 5899 5898 5898 5897 5896
5866 5866 5866 5866 5866 5867 5868 5869 5870 5871 5871 5872 5874 5875 5876 5877 5879 5880 5881 5882 5884 5885 5886 5887 5888 5889 5891 5892 5892 5893 5895 5896 5896 5897 5898 5899 5900 5901 5902 5903 5904 5906 5907 5908 5910 5911 5912 5912 5912 5913 5915 5915 5916 5916 5916 5916 5916 5916 5916 5916 5915 5915 5915 5914 5915 5914 5913 5912 5911 5910 5908 5908 5907 5905 5904 5904 5903 5903 5902 5901 5901 5900 5900 5900 5899 5899 5898 5897
5863 5863 5863 5863 5863 5864 5864 5865 5866 5866 5867 5868 5869 5871 5872 5873 5875 5876 5877 5879 5880 5881 5883 5884 5885 5886 5888 5889 5890 5891 5892 5893 5894 5895 5896 5897 5898 5899 5900 5901 5903 5904 5905 5907 5908 5909 5910 5911 5912 5913 5914 5914 5914 5914 5915 5915 5916 5916 5916 5916 5915 5915 5915 5915 5915 5914 5913 5912 5911 5910 5908 5907 5907 5905 5904 5904 5903 5903 5902 5902 5901 5901 5900 5900 5900 5899 5899 5898
5860 5860 5860 5859 5860 5861 5861 5861 5862 5863 5863 5864 5865 5866 5868 5869 5870 5872 5873 5875 5876 5877 5879 5880 5882 5883 5884 5885 5887 5888 5889 5890 5891 5892 5893 5894 5895 5897 5898 5900 5901 5902 5904 5905 5907 5908 5909 5910 5911 5912 5912 5912 5913 5913 5915 5915 5915 5916 5916 5915 5914 5914 5915 5915 5915 5914 5913 5912 5911 5910 5909 5907 5906 5905 5904 5904 5903 5902 5902 5902 5901 5901 5900 5900 5900 5900 5900 5899
5857 5857 5857 5856 5857 5858 5858 5858 5859 5859 5860 5860 5861 5862 5863 5865 5866 5868 5869 5870 5872 5873 5875 5877 5878 5879 5880 5882 5884 5885 5886 5887 5888 5890 5891 5892 5893 5895 5896 5898 5899 5901 5902 5903 5905 5906 5908 5909 5909 5910 5910 5911 5911 5913 5914 5915 5915 5915 5915 5914 5913 5914 5915 5915 5915 5914 5913 5912 5911 5910 5909 5908 5906 5905 5904 5903 5902 5902 5902 5902 5901 5901 5900 5900 5900 5900 5900 5900
5855 5855 5855 5854 5854 5855 5855 5856 5856 5857 5857 5857 5858 5859 5860 5861 5862 5863 5865 5866 5868 5869 5871 5873 5874 5875 5877 5879 5880 5882 5883 5884 5885 5887 5889 5890 5891 5892 5894 5896 5897 5899 5900 5901 5903 5905 5907 5907 5907 5908 5909 5909 5911 5912 5913 5914 5914 5915 5915 5914 5913 5914 5915 5915 5914 5914 5913 5913 5912 5910 5909 5908 5907 5905 5904 5903 5902 5901 5901 5901 5901 5901 5900 5900 5900 5900 5900 5900
5852 5853 5852 5851 5851 5852 5853 5853 5853 5854 5854 5855 5855 5856 5857 5858 5859 5860 5861 5862 5863 5865 5867 5869 5870 5871 5873 5875 5877 5878 5880 5881 5882 5884 5886 5887 5888 5890 5892 5894 5895 5896 5898 5899 5901 5903 5905 5905 5905 5906 5908 5908 5909 5910 5912 5913 5913 5914 5914 5913 5914 5914 5915 5914 5914 5914 5913 5913 5912 5911 5909 5907 5906 5905 5904 5903 5902 5901 5901 5901 5901 5901 5900 5900 5900 5900 5900 5901
5850 5851 5850 5849 5848 5849 5850 5850 5850 5851 5852 5852 5852 5853 5854 5855 5856 5857 5858 5859 5859 5861 5863 5865 5865 5866 5869 5872 5873 5874 5876 5877 5878 5880 5883 5884 5886 5888 5889 5891 5893 5894 5896 5897 5899 5900 5902 5902 5903 5905 5906 5907 5908 5909 5911 5912 5912 5913 5913 5913 5914 5914 5914 5914 5914 5913 5912 5912 5912 5911 5909 5907 5906 5906 5905 5904 5903 5902 5901 5900 5900 5900 5900 5900 5900 5900 5900 5901
5847 5848 5848 5846 5846 5847 5847 5847 5848 5848 5849 5849 5850 5851 5852 5852 5853 5854 5855 5856 5856 5857 5859 5861 5862 5862 5865 5868 5870 5871 5872 5873 5875 5877 5879 5881 5883 5885 5887 5889 5890 5891 5893 5895 5896 5898 5899 5900 5901 5903 5904 5906 5907 5908 5910 5911 5912 5912 5912 5912 5913 5913 5913 5913 5913 5912 5912 5912 5912 5911 5909 5907 5906 5905 5905 5904 5903 5902 5901 5901 5900 5900 5900 5900 5900 5900 5900 5901
5844 5846 5845 5843 5843 5844 5845 5845 5845 5845 5846 5847 5847 5848 5849 5850 5850 5851 5852 5853 5853 5854 5855 5857 5858 5859 5862 5864 5866 5867 5867 5869 5872 5874 5876 5878 5880 5882 5884 5886 5887 5889 5891 5892 5894 5895 5897 5899 5900 5901 5903 5904 5905 5907 5908 5909 5911 5911 5911 5911 5912 5912 5912 5912 5912 5911 5912 5912 5911 5910 5909 5907 5905 5905 5904 5903 5902 5902 5901 5900 5900 5899 5900 5900 5899 5900 5900 5901
5841 5843 5842 5840 5841 5842 5842 5842 5843 5843 5844 5844 5845 5846 5846 5847 5848 5849 5850 5850 5850 5851 5852 5853 5854 5856 5858 5860 5861 5862 5864 5867 5868 5870 5873 5875 5876 5879 5881 5883 5884 5886 5888 5890 5892 5894 5896 5897 5899 5900 5901 5902 5905 5906 5906 5907 5909 5909 5910 5910 5911 5911 5911 5911 5910 5911 5912 5912 5911 5910 5909 5908 5905 5904 5903 5903 5901 5901 5900 5899 5899 5899 5899 5899 5899 5899 5900 5900
5838 5840 5839 5837 5838 5840 5840 5840 5840 5841 5842 5842 5842 5843 5844 5844 5845 5846 5847 5847 5847 5848 5849 5850 5851 5853 5855 5856 5858 5859 5861 5863 5864 5867 5870 5871 5874 5876 5878 5880 5881 5883 5886 5888 5889 5890 5892 5894 5896 5897 5898 5901 5903 5903 5903 5905 5907 5908 5909 5909 5910 5910 5910 5910 5910 5910 5911 5911 5910 5910 5909 5907 5905 5902 5903 5902 5900 5900 5899 5898 5898 5897 5897 5898 5899 5899 5899 5900
5835 5837 5835 5834 5836 5837 5837 5837 5838 5839 5839 5839 5840 5841 5841 5842 5842 5843 5844 5844 5845 5845 5846 5847 5849 5850 5852 5853 5855 5856 5858 5859 5862 5865 5866 5868 5872 5874 5875 5877 5879 5881 5883 5885 5886 5887 5889 5892 5893 5894 5896 5899 5899 5900 5901 5903 5905 5906 5907 5908 5909 5909 5909 5909 5909 5910 5910 5910 5909 5909 5908 5907 5905 5902 5901 5900 5899 5898 5898 5897 5896 5896 5896 5897 5898 5899 5899 5899
5832 5833 5832 5832 5833 5834 5835 5835 5836 5836 5836 5837 5838 5838 5839 5839 5840 5841 5841 5842 5843 5843 5844 5845 5846 5847 5849 5851 5852 5853 5855 5857 5859 5862 5863 5866 5868 5870 5872 5874 5875 5877 5880 5882 5883 5885 5888 5890 5891 5892 5894 5896 5898 5899 5901 5902 5904 5905 5906 5907 5907 5907 5907 5908 5908 5908 5908 5908 5908 5908 5908 5906 5904 5902 5900 5899 5898 5897 5896 5896 5895 5895 5895 5895 5897 5898 5898 5899
5828 5829 5829 5829 5830 5831 5832 5832 5833 5833 5834 5834 5835 5836 5836 5837 5837 5838 5838 5840 5840 5841 5841 5843 5844 5846 5847 5848 5850 5851 5853 5855 5857 5859 5861 5864 5865 5867 5870 5871 5873 5875 5878 5881 5882 5883 5886 5888 5889 5890 5892 5895 5897 5898 5899 5901 5903 5904 5905 5906 5905 5906 5906 5906 5906 5906 5906 5906 5907 5907 5907 5905 5903 5901 5900 5898 5897 5896 5896 5895 5895 5894 5894 5895 5895 5897 5898 5899
5824 5825 5825 5826 5827 5828 5829 5829 5830 5830 5831 5832 5832 5833 5833 5834 5834 5835 5836 5837 5837 5838 5840 5841 5843 5844 5845 5847 5848 5849 5851 5852 5854 5857 5859 5861 5863 5865 5867 5869 5871 5874 5877 5880 5880 5882 5884 5885 5887 5888 5891 5893 5895 5896 5898 5900 5901 5903 5904 5904 5904 5905 5905 5906 5906 5905 5905 5905 5905 5906 5906 5904 5902 5900 5899 5898 5897 5896 5896 5895 5895 5894 5894 5894 5894 5895 5897 5898
5820 5821 5821 5823 5824 5824 5825 5826 5826 5827 5828 5829 5830 5830 5831 5831 5831 5833 5834 5834 5835 5837 5838 5840 5841 5842 5843 5845 5846 5847 5849 5851 5853 5854 5856 5858 5860 5862 5864 5866 5869 5872 5875 5877 5878 5880 5882 5883 5885 5887 5889 5891 5893 5895 5897 5898 5900 5901 5902 5902 5903 5904 5904 5905 5905 5905 5905 5904 5904 5904 5904 5902 5901 5900 5899 5899 5898 5897 5896 5895 5895 5895 5894 5894 5894 5895 5896 5897
5816 5818 5818 5819 5820 5821 5822 5822 5823 5824 5825 5826 5827 5828 5828 5828 5828 5830 5831 5832 5833 5835 5837 5838 5840 5840 5842 5843 5844 5846 5847 5849 5851 5852 5854 5856 5858 5860 5862 5864 5867 5869 5872 5874 5876 5878 5880 5882 5883 5885 5887 5889 5892 5894 5895 5897 5898 5899 5899 5900 5901 5902 5903 5903 5904 5904 5904 5904 5903 5903 5902 5900 5900 5900 5899 5898 5897 5897 5896 5895 5895 5895 5895 5894 5894 5894 5895 5896
5812 5814 5814 5815 5817 5817 5818 5819 5820 5821 5822 5823 5824 5825 5825 5825 5826 5827 5829 5830 5832 5833 5836 5837 5838 5839 5840 5841 5842 5844 5846 5847 5849 5851 5853 5854 5856 5858 5860 5862 5865 5867 5870 5872 5874 5876 5878 5879 5880 5882 5885 5887 5890 5891 5893 5895 5896 5896 5898 5899 5900 5901 5901 5902 5902 5902 5902 5904 5903 5901 5900 5900 5899 5899 5898 5897 5896 5895 5895 5895 5894 5894 5894 5894 5894 5894 5894 5895
5808 5810 5811 5812 5813 5814 5814 5816 5817 5818 5819 5820 5821 5822 5822 5822 5823 5825 5826 5828 5830 5832 5834 5835 5836 5837 5838 5840 5841 5843 5845 5846 5848 5850 5852 5853 5855 5856 5858 5860 5862 5865 5867 5870 5871 5873 5876 5877 5877 5880 5883 5885 5887 5889 5890 5892 5892 5894 5896 5897 5898 5899 5900 5901 5902 5901 5901 5903 5903 5900 5899 5899 5898 5898 5897 5896 5896 5894 5894 5895 5894 5894 5894 5893 5893 5893 5893 5894
5803 5806 5807 5808 5809 5810 5811 5812 5813 5815 5816 5817 5818 5818 5819 5820 5821 5823 5824 5826 5828 5830 5832 5833 5834 5835 5837 5839 5841 5842 5844 5845 5847 5849 5850 5852 5853 5854 5856 5858 5860 5862 5864 5867 5868 5870 5873 5875 5876 5878 5880 5882 5885 5887 5888 5889 5890 5892 5894 5895 5896 5898 5899 5899 5900 5901 5901 5902 5902 5900 5898 5898 5897 5897 5896 5896 5896 5894 5894 5894 5894 5893 5893 5893 5892 5892 5893 5893
5798 5801 5803 5804 5806 5807 5807 5809 5810 5811 5812 5814 5815 5815 5816 5818 5819 5820 5822 5823 5825 5828 5829 5831 5832 5834 5836 5838 5839 5841 5843 5844 5846 5847 5849 5850 5852 5853 5854 5855 5857 5860 5862 5864 5865 5867 5870 5873 5874 5875 5878 5880 5882 5884 5886 5887 5888 5891 5893 5894 5895 5897 5897 5897 5898 5899 5900 5900 5900 5899 5898 5897 5896 5895 5895 5895 5896 5895 5894 5894 5893 5893 5892 5892 5892 5892 5892 5893
5794 5796 5798 5800 5802 5803 5804 5805 5806 5808 5809 5810 5811 5812 5814 5815 5816 5818 5819 5821 5823 5825 5827 5829 5830 5832 5834 5836 5838 5840 5841 5843 5844 5846 5847 5848 5850 5851 5852 5854 5855 5857 5859 5861 5863 5865 5868 5871 5872 5872 5875 5878 5879 5881 5884 5886 5887 5890 5892 5893 5894 5894 5896 5896 5897 5897 5898 5899 5899 5898 5898 5896 5895 5894 5894 5895 5895 5894 5894 5893 5893 5892 5892 5891 5891 5891 5891 5891
5789 5791 5794 5796 5798 5800 5801 5802 5803 5804 5806 5807 5808 5809 5810 5812 5813 5815 5817 5819 5821 5823 5825 5827 5828 5830 5832 5834 5836 5838 5840 5842 5843 5844 5845 5847 5848 5849 5850 5852 5853 5855 5857 5858 5860 5862 5864 5867 5869 5870 5872 5876 5878 5879 5882 5884 5885 5888 5890 5891 5892 5893 5894 5895 5896 5896 5896 5897 5897 5896 5896 5896 5894 5894 5895 5894 5894 5894 5893 5893 5892 5891 5891 5890 5890 5890 5890 5890
5785 5786 5789 5792 5794 5796 5797 5798 5799 5801 5802 5804 5805 5806 5807 5809 5811 5813 5815 5817 5819 5821 5823 5825 5827 5829 5831 5833 5834 5836 5839 5840 5841 5842 5844 5845 5847 5848 5848 5850 5851 5853 5855 5857 5859 5860 5862 5864 5866 5868 5871 5876 5876 5876 5879 5881 5883 5885 5887 5889 5891 5892 5892 5894 5896 5896 5894 5895 5895 5895 5895 5895 5894 5894 5895 5894 5893 5893 5892 5892 5891 5891 5890 5889 5889 5889 5889 5889
5780 5782 5785 5788 5790 5792 5794 5795 5796 5798 5799 5800 5802 5803 5805 5807 5809 5810 5812 5814 5816 5819 5821 5823 5825 5827 5829 5831 5833 5835 5837 5838 5840 5841 5843 5844 5845 5846 5847 5848 5849 5851 5853 5855 5856 5858 5860 5862 5864 5867 5870 5872 5872 5873 5876 5879 5881 5882 5884 5887 5889 5890 5891 5893 5895 5894 5893 5894 5894 5894 5895 5894 5893 5893 5893 5893 5893 5893 5892 5891 5891 5890 5889 5888 5888 5888 5888 5888
5775 5778 5780 5783 5786 5788 5790 5791 5793 5794 5796 5797 5798 5800 5802 5804 5806 5808 5810 5812 5814 5816 5819 5821 5823 5825 5827 5829 5831 5834 5835 5836 5838 5839 5841 5842 5843 5844 5845 5846 5848 5850 5851 5853 5854 5856 5858 5860 5862 5865 5867 5869 5870 5871 5874 5876 5878 5880 5883 5884 5886 5889 5891 5892 5892 5892 5892 5893 5893 5893 5894 5892 5890 5891 5892 5892 5892 5892 5892 5891 5890 5889 5888 5888 5887 5887 5887 5887
5771 5773 5776 5779 5782 5784 5786 5788 5789 5791 5792 5794 5795 5797 5799 5802 5804 5805 5807 5809 5812 5814 5817 5819 5821 5823 5826 5828 5830 5832 5834 5835 5837 5838 5840 5841 5842 5843 5844 5846 5847 5849 5850 5851 5853 5854 5856 5858 5860 5862 5864 5866 5868 5870 5873 5874 5876 5879 5880 5882 5885 5888 5889 5890 5890 5890 5890 5891 5891 5891 5891 5889 5889 5890 5891 5891 5892 5891 5891 5890 5889 5888 5888 5887 5887 5886 5886 5886
5766 5769 5771 5774 5778 5780 5782 5784 5786 5787 5789 5790 5792 5794 5797 5799 5801 5803 5805 5807 5809 5812 5815 5817 5819 5822 5824 5826 5828 5830 5832 5834 5836 5837 5838 5839 5840 5842 5844 5845 5847 5848 5849 5850 5851 5852 5854 5856 5858 5860 5862 5865 5868 5870 5871 5873 5875 5877 5878 5881 5884 5886 5888 5888 5888 5888 5888 5889 5888 5888 5889 5888 5887 5888 5889 5890 5890 5890 5890 5889 5888 5887 5887 5886 5886 5885 5885 5885
5762 5764 5767 5770 5773 5776 5778 5780 5782 5784 5786 5787 5789 5791 5794 5796 5799 5801 5803 5805 5807 5809 5812 5815 5817 5819 5822 5824 5826 5828 5830 5832 5834 5835 5837 5838 5839 5841 5843 5844 5846 5847 5849 5850 5851 5852 5853 5855 5856 5858 5860 5863 5865 5867 5868 5870 5873 5875 5877 5880 5883 5885 5886 5886 5887 5887 5887 5887 5887 5887 5888 5886 5885 5886 5888 5889 5889 5889 5888 5887 5886 5886 5885 5885 5884 5884 5884 5884
5757 5760 5763 5766 5769 5772 5774 5776 5778 5780 5782 5784 5786 5788 5791 5794 5796 5798 5800 5802 5804 5806 5809 5812 5814 5817 5820 5822 5824 5826 5828 5830 5831 5833 5835 5837 5838 5840 5842 5844 5845 5846 5848 5849 5850 5852 5854 5855 5856 5858 5859 5861 5862 5864 5865 5868 5871 5873 5875 5879 5881 5882 5883 5884 5885 5885 5885 5886 5886 5886 5886 5884 5884 5885 5886 5887 5888 5888 5887 5886 5885 5884 5884 5883 5883 5882 5882 5882
5753 5756 5759 5762 5765 5768 5771 5773 5775 5777 5779 5781 5783 5785 5788 5790 5793 5795 5798 5800 5802 5804 5806 5809 5811 5814 5817 5819 5821 5823 5825 5827 5829 5831 5833 5835 5837 5839 5841 5842 5844 5845 5847 5848 5849 5851 5853 5855 5856 5857 5858 5859 5860 5861 5863 5865 5868 5870 5873 5876 5878 5879 5881 5882 5883 5883 5883 5883 5883 5884 5883 5882 5884 5885 5885 5886 5886 5886 5886 5885 5884 5883 5883 5882 5881 5881 5881 5881
5749 5752 5755 5758 5761 5764 5767 5769 5771 5774 5776 5778 5780 5782 5784 5787 5790 5792 5795 5797 5799 5800 5802 5805 5809 5812 5814 5816 5818 5820 5822 5824 5827 5829 5832 5834 5836 5838 5839 5841 5843 5844 5845 5847 5848 5850 5852 5853 5855 5856 5856 5857 5858 5859 5861 5863 5866 5868 5870 5872 5874 5876 5878 5880 5880 5881 5881 5881 5881 5881 5881 5881 5883 5884 5884 5885 5885 5885 5884 5884 5883 5882 5881 5881 5880 5880 5879 5879
5745 5748 5751 5754 5757 5760 5763 5765 5768 5771 5773 5775 5776 5778 5781 5784 5787 5789 5792 5794 5796 5797 5799 5803 5806 5809 5811 5813 5814 5817 5820 5822 5825 5827 5829 5831 5833 5836 5838 5840 5841 5843 5844 5846 5848 5849 5850 5852 5854 5854 5855 5855 5856 5858 5860 5862 5864 5866 5868 5870 5872 5874 5876 5878 5879 5879 5879 5879 5879 5878 5878 5879 5881 5883 5883 5883 5883 5883 5883 5882 5881 5881 5880 5879 5879 5878 5878 5878
5742 5744 5747 5750 5753 5756 5759 5762 5764 5767 5769 5770 5772 5775 5777 5780 5783 5786 5789 5791 5793 5794 5797 5800 5803 5806 5808 5809 5811 5815 5818 5821 5823 5825 5826 5829 5831 5834 5836 5838 5840 5842 5843 5845 5846 5848 5850 5852 5852 5853 5854 5854 5854 5856 5859 5860 5862 5864 5865 5868 5869 5872 5874 5876 5877 5877 5876 5876 5876 5875 5875 5878 5880 5880 5881 5881 5881 5881 5881 5880 5880 5880 5879 5878 5877 5877 5876 5876